Location: Boiro
(42.6475°N, 8.8834°W)
Time: 18:56:40
(UTC+01:00)

Transit 2A - Pass Details

Date: 06 December 2021
Orbit: 591 x 967 km, 66.7° (Epoch: 20 January)

Event Time Altitude Azimuth Distance (km) Brightness Sun altitude
Rises 00:08:58 0° 179° (S) 3,244 - -64.2°
Reaches altitude 10° 00:11:29 10° 169° (S) 2,382 - -64.5°
Maximum altitude 00:16:19 32° 108° (ESE) 1,450 - -65.1°
Drops below altitude 10° 00:21:34 10° 48° (NE) 2,603 - -65.7°
Sets 00:24:26 0° 39° (NE) 3,593 - -66.1°
